Leesburg, FL

8:30 AM EST on December 15, 2019 (GMT -0500)
Leesburg Regional

Weather History for KLEE - November, 2019

Change the Weather History Date:

Monday, November 11, 2019

  Actual Average Record
Temperature  
Mean Temperature 71 °F -  
Max Temperature 82 °F 77 °F 86 °F (1972)
Min Temperature 60 °F 55 °F 38 °F (1962)
Cooling Degree Days 6    
Growing Degree Days 21 (Base 50)    
Moisture  
Dew Point 59 °F    
Average Humidity 69    
Maximum Humidity 90    
Minimum Humidity 46    
Precipitation  
Precipitation 0.00 in - - ()
Sea Level Pressure  
Sea Level Pressure 30.11 in    
Wind  
Wind Speed 4 mph (NE)    
Max Wind Speed 8 mph    
Max Gust Speed -    
Visibility 10 miles    
Events      
Averages and records for this station are not official NWS values.
T = Trace of Precipitation, MM = Missing Value Source: NWS Daily Summary

Daily Weather History Graph

Daily Weather History Graph

Search for Another Location

Airport or City:

Astronomy

Nov. 11, 2019 Rise Set
Actual Time 6:46 AM EST 5:35 PM EST
Civil Twilight 6:22 AM EST 6:00 PM EST
Nautical Twilight 5:53 AM EST 6:28 PM EST
Astronomical Twilight 5:25 AM EST 6:56 PM EST
Moon 5:22 PM EST (11/11) 5:46 AM EST (11/11)
Length of Visible Light 11h 38m
Length of Day
10h 48m
Waxing Gibbous, 99% of the Moon is Illuminated
Nov 11
Waxing Gibbous
Nov 12
Full
Nov 19
Last Quarter
Nov 26
New
Dec 4
First Quarter

Hourly Weather History & Observations

Time (EST) Temp. Heat Index Dew Point Humidity Pressure Visibility Wind Dir Wind Speed Gust Speed Precip Events Conditions
12:53 AM 60.1 °F - 54.0 °F 80% 30.16 in 10.0 mi NE 3.5 mph - N/A   Clear
1:53 AM 60.1 °F - 54.0 °F 80% 30.15 in 10.0 mi Calm Calm - N/A   Clear
2:53 AM 60.1 °F - 54.0 °F 80% 30.14 in 10.0 mi Calm Calm - N/A   Clear
3:53 AM 60.1 °F - 54.0 °F 80% 30.13 in 10.0 mi NNE 3.5 mph - N/A   Partly Cloudy
4:53 AM 60.1 °F - 54.0 °F 80% 30.13 in 10.0 mi Calm Calm - N/A   Partly Cloudy
5:53 AM 60.1 °F - 54.0 °F 80% 30.14 in 10.0 mi NNE 5.8 mph - N/A   Partly Cloudy
6:53 AM 62.1 °F - 55.0 °F 78% 30.14 in 10.0 mi NE 3.5 mph - N/A   Mostly Cloudy
7:53 AM 66.9 °F - 57.0 °F 70% 30.16 in 10.0 mi NE 5.8 mph - N/A   Partly Cloudy
8:53 AM 72.0 °F - 57.9 °F 61% 30.17 in 10.0 mi NNE 5.8 mph - N/A   Mostly Cloudy
9:53 AM 77.0 °F - 60.1 °F 56% 30.17 in 10.0 mi NNE 4.6 mph - N/A   Clear
10:53 AM 79.0 °F - 61.0 °F 54% 30.16 in 10.0 mi Variable 5.8 mph - N/A   Mostly Cloudy
11:53 AM 81.0 °F 81.7 °F 61.0 °F 50% 30.13 in 10.0 mi East 6.9 mph - N/A   Clear
12:53 PM 82.0 °F 83.0 °F 62.1 °F 51% 30.10 in 10.0 mi Variable 5.8 mph - N/A   Partly Cloudy
1:53 PM 81.0 °F 81.7 °F 61.0 °F 50% 30.07 in 10.0 mi NE 5.8 mph - N/A   Scattered Clouds
2:53 PM 82.9 °F 83.2 °F 60.1 °F 46% 30.06 in 10.0 mi ESE 5.8 mph - N/A   Partly Cloudy
3:53 PM 82.0 °F 82.7 °F 61.0 °F 49% 30.05 in 10.0 mi ENE 4.6 mph - N/A   Clear
4:53 PM 80.1 °F 81.2 °F 62.1 °F 54% 30.05 in 10.0 mi ENE 4.6 mph - N/A   Clear
5:53 PM 75.9 °F - 63.0 °F 64% 30.05 in 10.0 mi East 8.1 mph - N/A   Mostly Cloudy
6:53 PM 73.9 °F - 64.0 °F 71% 30.06 in 10.0 mi ENE 5.8 mph - N/A   Mostly Cloudy
7:53 PM 72.0 °F - 64.0 °F 76% 30.07 in 10.0 mi ENE 8.1 mph - N/A   Clear
8:53 PM 71.1 °F - 64.0 °F 78% 30.07 in 10.0 mi NE 4.6 mph - N/A   Clear
9:53 PM 69.1 °F - 64.0 °F 84% 30.07 in 10.0 mi Calm Calm - N/A   Clear
10:53 PM 66.9 °F - 63.0 °F 87% 30.06 in 10.0 mi Calm Calm - N/A   Clear
11:53 PM 66.0 °F - 63.0 °F 90% 30.05 in 10.0 mi NE 3.5 mph - N/A   Clear